AGJ920 MMUN-MHTG

Flight info

Callsign AGJ920
Flight time N/A
Altitude 300
Route LIDEK CZM BZE SAP KIMLE TNT
Aircraft A319/M-SDE3FG/L

Departure

Time 2026-04-28 19:36
Airport Cancún International Airport (MMUN)

Arrival

Time N/A
Airport Toncontín Airport (MHTG)
Time Latitude Longitude Altitude Speed Heading
2026-04-28 19:03 21.03765 -86.86653 -62 ft 0 kts 304°
2026-04-28 19:23 21.03757 -86.86640 29 ft 2 kts 304°
2026-04-28 19:23 21.03748 -86.86625 27 ft 2 kts 304°
2026-04-28 19:23 21.03739 -86.86611 28 ft 2 kts 295°
2026-04-28 19:23 21.03734 -86.86595 29 ft 2 kts 278°
2026-04-28 19:24 21.03734 -86.86577 28 ft 2 kts 258°
2026-04-28 19:24 21.03741 -86.86565 26 ft 0 kts 211°
2026-04-28 19:26 21.03740 -86.86566 26 ft 1 kts 211°
2026-04-28 19:26 21.03720 -86.86578 28 ft 5 kts 210°
2026-04-28 19:26 21.03681 -86.86604 29 ft 8 kts 212°
2026-04-28 19:27 21.03625 -86.86636 29 ft 9 kts 188°
2026-04-28 19:27 21.03572 -86.86607 29 ft 9 kts 123°
2026-04-28 19:27 21.03577 -86.86550 29 ft 8 kts 52°
2026-04-28 19:27 21.03620 -86.86514 30 ft 8 kts 34°
2026-04-28 19:28 21.03661 -86.86484 33 ft 7 kts 34°
2026-04-28 19:28 21.03714 -86.86445 38 ft 12 kts 34°
2026-04-28 19:28 21.03795 -86.86387 47 ft 16 kts 34°
2026-04-28 19:28 21.03892 -86.86320 50 ft 17 kts 33°
2026-04-28 19:29 21.03994 -86.86248 45 ft 18 kts 33°
2026-04-28 19:29 21.04062 -86.86239 45 ft 13 kts 330°
2026-04-28 19:29 21.04136 -86.86333 41 ft 13 kts 303°
2026-04-28 19:29 21.04187 -86.86414 38 ft 14 kts 307°
2026-04-28 19:30 21.04246 -86.86508 32 ft 17 kts 303°
2026-04-28 19:30 21.04318 -86.86623 27 ft 20 kts 303°
2026-04-28 19:30 21.04394 -86.86743 24 ft 18 kts 301°
2026-04-28 19:30 21.04458 -86.86848 28 ft 16 kts 304°
2026-04-28 19:31 21.04515 -86.86936 25 ft 13 kts 305°
2026-04-28 19:31 21.04559 -86.87010 27 ft 11 kts 302°
2026-04-28 19:31 21.04596 -86.87071 24 ft 9 kts 303°
2026-04-28 19:31 21.04628 -86.87122 24 ft 10 kts 304°
2026-04-28 19:32 21.04691 -86.87222 27 ft 22 kts 303°
2026-04-28 19:32 21.04774 -86.87354 29 ft 21 kts 304°
2026-04-28 19:32 21.04847 -86.87470 26 ft 17 kts 304°
2026-04-28 19:32 21.04907 -86.87563 27 ft 14 kts 303°
2026-04-28 19:33 21.04956 -86.87641 27 ft 13 kts 304°
2026-04-28 19:33 21.05005 -86.87720 28 ft 13 kts 303°
2026-04-28 19:33 21.05056 -86.87804 29 ft 14 kts 303°
2026-04-28 19:33 21.05110 -86.87890 29 ft 14 kts 304°
2026-04-28 19:34 21.05168 -86.87979 29 ft 15 kts 304°
2026-04-28 19:34 21.05224 -86.88070 30 ft 15 kts 304°
2026-04-28 19:34 21.05279 -86.88158 30 ft 14 kts 304°
2026-04-28 19:34 21.05349 -86.88202 30 ft 11 kts
2026-04-28 19:35 21.05415 -86.88171 32 ft 10 kts 32°
2026-04-28 19:35 21.05454 -86.88120 33 ft 8 kts 85°
2026-04-28 19:35 21.05426 -86.88059 33 ft 15 kts 123°
2026-04-28 19:35 21.05280 -86.87828 34 ft 67 kts 124°
2026-04-28 19:36 21.04890 -86.87206 32 ft 133 kts 123°
2026-04-28 19:36 21.04303 -86.86233 401 ft 162 kts 123°
2026-04-28 19:36 21.03763 -86.85272 1595 ft 142 kts 121°
2026-04-28 19:36 21.03176 -86.84342 2137 ft 162 kts 124°
2026-04-28 19:37 21.02496 -86.83248 2518 ft 190 kts 123°
2026-04-28 19:37 21.01990 -86.82425 2730 ft 208 kts 123°
2026-04-28 19:37 21.00811 -86.80514 3220 ft 250 kts 123°
2026-04-28 19:37 20.99840 -86.78952 4105 ft 254 kts 123°
2026-04-28 19:38 20.98865 -86.77364 5083 ft 259 kts 122°
2026-04-28 19:38 20.97722 -86.75845 5937 ft 267 kts 141°
2026-04-28 19:38 20.96034 -86.74973 6743 ft 277 kts 168°
2026-04-28 19:38 20.94088 -86.74736 7525 ft 284 kts 174°
2026-04-28 19:39 20.92098 -86.74565 8320 ft 290 kts 171°
2026-04-28 19:39 20.90214 -86.73851 9132 ft 290 kts 143°
2026-04-28 19:39 20.88665 -86.72464 9895 ft 294 kts 135°
2026-04-28 19:39 20.87152 -86.70962 10617 ft 299 kts 135°
2026-04-28 19:40 20.85581 -86.69427 11081 ft 315 kts 135°
2026-04-28 19:40 20.83900 -86.67804 11371 ft 336 kts 136°
2026-04-28 19:40 20.82112 -86.66074 11629 ft 357 kts 136°
2026-04-28 19:40 20.80080 -86.64504 11992 ft 374 kts 155°
2026-04-28 19:41 20.77568 -86.63812 12820 ft 377 kts 175°
2026-04-28 19:41 20.74946 -86.64141 13392 ft 385 kts 198°
2026-04-28 19:41 20.72589 -86.65504 14009 ft 388 kts 221°
2026-04-28 19:41 20.70683 -86.67551 14583 ft 391 kts 229°
2026-04-28 19:42 20.68878 -86.69748 15157 ft 394 kts 231°
2026-04-28 19:42 20.67067 -86.71968 15711 ft 399 kts 230°
2026-04-28 19:42 20.65190 -86.74171 16252 ft 403 kts 229°
2026-04-28 19:42 20.63927 -86.75633 16639 ft 405 kts 229°
2026-04-28 19:43 20.61379 -86.78638 17367 ft 410 kts 230°
2026-04-28 19:43 20.59467 -86.80921 17896 ft 414 kts 230°
2026-04-28 19:43 20.57523 -86.83216 18408 ft 418 kts 230°
2026-04-28 19:43 20.55557 -86.85522 18868 ft 421 kts 230°
2026-04-28 19:44 20.53581 -86.87853 19357 ft 423 kts 230°
2026-04-28 19:44 20.51580 -86.90169 19797 ft 427 kts 226°
2026-04-28 19:44 20.49134 -86.91982 20275 ft 432 kts 208°
2026-04-28 19:44 20.47333 -86.92898 20569 ft 435 kts 206°